Location: Unspecified
(0.0000°N, 0.0000°E)
Time: 00:15:24
(UTC+00:00)

OFEQ 7 - Pass Details

Date: 13 June 2023
Orbit: 475 x 482 km, 141.7° (Epoch: 03 October)

Event Time Altitude Azimuth Distance (km) Brightness Sun altitude
Rises 04:54:50 0° 91° (E) 2,432 9.9 -14.9°
Reaches altitude 10° 04:57:51 10° 57° (ENE) 1,556 9.0 -14.3°
Maximum altitude 04:59:04 12° 35° (NE) 1,448 8.4 -14.0°
Drops below altitude 10° 05:00:17 10° 12° (NNE) 1,553 8.1 -13.7°
Sets 05:03:17 0° 339° (NNW) 2,419 8.6 -13.0°
